Location: Beuerbach
(48.1459°N, 10.9174°E)
Time: 02:54:39
(UTC+00:00)

Meteor 1-28 Rocket - Pass Details

Date: 23 May 2024
Orbit: 474 x 489 km, 97.5° (Epoch: 19 June)

Event Time Altitude Azimuth Distance (km) Brightness Sun altitude
Exits shadow 02:01:31 11° 178° (S) 1,621 5.3 -11.6°
Maximum altitude 02:04:57 60° 259° (W) 556 3.1 -11.2°
Drops below altitude 10° 02:08:30 10° 340° (NNW) 1,663 6.2 -10.8°
Sets 02:10:35 0° 344° (NNW) 2,545 7.2 -10.6°
